Regional Weather Roundup
Issued by NWS

Home | Current Version | Previous Version | Graphics & Text | Print | Product List | Glossary On
Versions: 1 2 3 4 5 6 7 8 9 10 11 12 13 14 15 16 17 18 19 20 21 22 23 24 25 26 27 28 29 30 31 32 33 34 35 36 37 38 39 40 41 42 43 44 45 46 47 48 49 50
000
ASUS43 KDTX 260601
RWRMI
MICHIGAN HOURLY REGIONAL WEATHER ROUNDUP
NATIONAL WEATHER SERVICE DETROIT/PONTIAC MI
100 AM EST SUN FEB 26 2017

NOTE: "FAIR" INDICATES FEW OR NO CLOUDS BELOW 12,000 FEET WITH NO
SIGNIFICANT WEATHER AND/OR OBSTRUCTION TO VISIBILITY.

MIZ047>049-052>055-059>063-066>070-074>076-081>083-260700-
SOUTHEAST LOWER MICHIGAN

CITY           SKY/WX    TMP DP  RH WIND       PRES   REMARKS
ADRIAN         CLOUDY    24  15  68 NW9       30.02R WCI  14
6HR MIN TEMP:  23; 6HR MAX TEMP:  25; 6HR PCP: TRACE;

ALMA           CLOUDY    24  15  67 W9G18     29.97R WCI  15
ANN ARBOR      FLURRIES  23  15  71 W10       29.99R WCI  12
BAD AXE        CLOUDY    26  17  68 W15G21    29.92R WCI  13
6HR MIN TEMP:  25; 6HR MAX TEMP:  27;

CARO           CLOUDY    25  17  71 W12G17    29.93R WCI  14
DETROIT CITY   CLOUDY    25  15  66 W10       29.99R WCI  15
6HR MIN TEMP:  25; 6HR MAX TEMP:  27; 6HR PCP: TRACE;

DETROIT        FLURRIES  25  14  63 W13       30.00R WCI  14
6HR MIN TEMP:  25; 6HR MAX TEMP:  28; 6HR PCP: TRACE;

FLINT          CLOUDY    24  14  65 W16       29.96R WCI  11
6HR MIN TEMP:  24; 6HR MAX TEMP:  25; 6HR PCP: TRACE;

GROSSE ILE     CLOUDY    25  15  64 W7        29.99S WCI  17
6HR MIN TEMP:  25; 6HR MAX TEMP:  28;

HILLSDALE      FLURRIES  23  18  80 W6        29.98R WCI  16
HOWELL         FLURRIES  24  18  78 W9        29.96S WCI  14
6HR MIN TEMP:  23; 6HR MAX TEMP:  24;


CITY           SKY/WX    TMP DP  RH WIND       PRES   REMARKS
JACKSON        CLOUDY    23  15  71 W8        29.98R WCI  14
6HR MIN TEMP:  22; 6HR MAX TEMP:  24; 6HR PCP: TRACE;

LAMBERTVILLE   CLOUDY    27  15  61 W8        30.02R WCI  18
6HR MIN TEMP:  26; 6HR MAX TEMP:  29;

LANSING        LGT SNOW  24  17  74 W13       29.98R WCI  12
6HR MIN TEMP:  22; 6HR MAX TEMP:  24; 6HR PCP: TRACE;

LAPEER         CLOUDY    25  15  65 W12       29.94S WCI  14
6HR MIN TEMP:  25; 6HR MAX TEMP:  26;

MASON          FLURRIES  24  19  81 W8        29.97S WCI  15
MONROE         CLOUDY    26  15  65 W13G18    30.01R WCI  14
6HR MIN TEMP:  25; 6HR MAX TEMP:  28;

MT. CLEMENS    CLOUDY    26  14  61 W14       29.96R WCI  14
6HR MIN TEMP:  26; 6HR MAX TEMP:  28; 6HR PCP: TRACE;

PONTIAC        CLOUDY    23  14  68 W10       29.94R WCI  12
6HR MIN TEMP:  23; 6HR MAX TEMP:  25; 6HR PCP: TRACE;

PORT HOPE        N/A     27  16  63 W12G18    29.89R WCI  17
6HR MIN TEMP:  27; 6HR MAX TEMP:  28;

PORT HURON     CLOUDY    25  18  74 W3        29.95R
TRI CITIES     CLOUDY    25  18  74 W14       29.95R WCI  13
6HR MIN TEMP:  25; 6HR MAX TEMP:  26; 6HR PCP: TRACE;

MIDLAND        FLURRIES  26  17  69 W9        29.94R WCI  16
6HR MIN TEMP:  26; 6HR MAX TEMP:  27;

TROY           FLURRIES  26  14  60 W7        29.99S WCI  18
SAGINAW HB     CLOUDY    27  18  69 W13G20    29.95R WCI  16
$$
MIZ043>046-050>051-056>058-064>065-071>073-077>080-260700-
SOUTHWEST LOWER MICHIGAN

CITY           SKY/WX    TMP DP  RH WIND       PRES   REMARKS
BATTLE CREEK   CLOUDY    24  18  77 W8        29.99R WCI  15
6HR MIN TEMP:  21; 6HR MAX TEMP:  24; 6HR PCP: TRACE;

BENTON HARBOR  MOCLDY    28  14  55 W10       30.02S WCI  19
6HR MIN TEMP:  25; 6HR MAX TEMP:  28;

BIG RAPIDS     CLEAR     19  14  80 CALM      29.92R
6HR MIN TEMP:  19; 6HR MAX TEMP:  23;

COLDWATER      FLURRIES  23  20  88 SW5       30.00R WCI  17
6HR MIN TEMP:  23; 6HR MAX TEMP:  24;

FREMONT        FAIR      17  13  86 S6        29.95S WCI   8
HOLLAND        MOCLDY    27  15  61 W7        30.00R WCI  19
6HR MIN TEMP:  23; 6HR MAX TEMP:  27; 6HR PCP: TRACE;

GRAND RAPIDS   PTCLDY    23  14  68 W6        29.97S WCI  16
6HR MIN TEMP:  22; 6HR MAX TEMP:  25; 6HR PCP: TRACE;

IONIA          MOCLDY    23  16  75 W6        29.97R WCI  15
6HR MIN TEMP:  22; 6HR MAX TEMP:  24;

KALAMAZOO      CLOUDY    25  16  68 W6        30.00R WCI  18
6HR MIN TEMP:  22; 6HR MAX TEMP:  25; 6HR PCP: TRACE;

LUDINGTON      CLEAR     27  16  65 NW9G17    29.93S WCI  17
6HR MIN TEMP:  24; 6HR MAX TEMP:  27;

MARSHALL       FLURRIES  23  18  79 W8        29.98R WCI  14
6HR MIN TEMP:  22; 6HR MAX TEMP:  23;

MOUNT PLEASANT FLURRIES  24  17  77 W8        29.94R WCI  14
6HR MIN TEMP:  24; 6HR MAX TEMP:  25;

MUSKEGON       MOCLDY    27  15  61 W9        29.98R WCI  18
6HR MIN TEMP:  25; 6HR MAX TEMP:  28; 6HR PCP: TRACE;

SOUTH HAVEN    CLOUDY    28  17  64 W8        30.01S WCI  19
$$
MIZ016>042-260700-
NORTHERN LOWER MICHIGAN

CITY           SKY/WX    TMP DP  RH WIND       PRES   REMARKS
ALPENA         MOCLDY    23  17  78 W9        29.87R WCI  13
6HR MIN TEMP:  21; 6HR MAX TEMP:  24; 6HR PCP: TRACE;

BEAVER ISLAND  CLEAR     25  16  68 W14       29.85S WCI  13
6HR MIN TEMP:  22; 6HR MAX TEMP:  25;

BELLAIRE       CLOUDY    26  15  62 W5        29.90R WCI  20
6HR MIN TEMP:  25; 6HR MAX TEMP:  27;

CADILLAC       CLEAR     17  14  87 SW3       29.87R
CHARLEVOIX     MOCLDY    26  15  63 W13G23    29.90R WCI  15
6HR MIN TEMP:  24; 6HR MAX TEMP:  26;

FRANKFORT      CLEAR     27  17  64 NW14G21   29.90F WCI  16
GAYLORD        FLURRIES  21  12  68 W8        29.83R WCI  11
6HR MIN TEMP:  21; 6HR MAX TEMP:  22; 6HR PCP: TRACE;

GRAYLING       FLURRIES  22  18  81 W5        29.87R WCI  16
HARBOR SPRINGS MOCLDY    25  13  62 W8G18     29.86R WCI  16
HOUGHTON LAKE  CLOUDY    22  14  71 W12G22    29.89R WCI  10
6HR MIN TEMP:  22; 6HR MAX TEMP:  23; 6HR PCP: TRACE;

MANISTEE       PTCLDY    26  16  65 NW13      29.92S WCI  15
OSCODA         CLOUDY    27  16  64 W9        29.89R WCI  17
6HR MIN TEMP:  26; 6HR MAX TEMP:  28;

PELLSTON       CLOUDY    24  12  60 W10G20    29.85R WCI  14
6HR MIN TEMP:  22; 6HR MAX TEMP:  24; 6HR PCP: TRACE;

TRAVERSE CITY  CLEAR     22  14  71 SW5       29.90R WCI  16
6HR MIN TEMP:  22; 6HR MAX TEMP:  27; 6HR PCP: TRACE;

$$
MIZ007>008-015-260700-
EASTERN UPPER MICHIGAN

CITY           SKY/WX    TMP DP  RH WIND       PRES   REMARKS
KINROSS        FLURRIES  19  14  81 W8G20     29.79R WCI   9
6HR MIN TEMP:  19; 6HR MAX TEMP:  20; 6HR PCP: TRACE;

MACKINAC ISLAN CLOUDY    24  16  72 W17G26    29.82R WCI  10
6HR MIN TEMP:  21; 6HR MAX TEMP:  24;

NEWBERRY       CLOUDY    19  13  77 SW12      29.79R WCI   6
6HR MIN TEMP:  18; 6HR MAX TEMP:  19;

S. S. MARIE    LGT SNOW  21  17  84 SW14      29.77R FOG     WCI   8
6HR MIN TEMP:  21; 6HR MAX TEMP:  24; 6HR PCP:  0.07;

MUNISING         N/A     20  10  65 SW12      29.81S WCI   8
6HR MIN TEMP:  18; 6HR MAX TEMP:  23;

$$
MIZ004>006-011>014-085-260700-
CENTRAL UPPER MICHIGAN

CITY           SKY/WX    TMP DP  RH WIND       PRES   REMARKS
MANISTIQUE     CLEAR     16  10  79 W6        29.83F WCI   7
6HR MIN TEMP:  16; 6HR MAX TEMP:  21;

ESCANABA       CLEAR      9   7  92 W3        29.86F
6HR MIN TEMP:   9; 6HR MAX TEMP:  22;

MENOMINEE      CLEAR     15   9  76 W7        29.90F WCI   5
6HR MIN TEMP:  14; 6HR MAX TEMP:  20;

SAWYER-GWINN   CLOUDY    18  11  75 SW8       29.79S WCI   7
6HR MIN TEMP:  13; 6HR MAX TEMP:  18;

$$
MIZ001>003-009>011-084-260700-
WESTERN UPPER MICHIGAN

CITY           SKY/WX    TMP DP  RH WIND       PRES   REMARKS
IRON MOUNTAIN  CLEAR     19   7  59 W6        29.79F WCI  11
6HR MIN TEMP:   6; 6HR MAX TEMP:  20;

HOUGHTON       CLOUDY    22  13  68 SW9       29.71F WCI  12
6HR MIN TEMP:  22; 6HR MAX TEMP:  26; 6HR PCP: TRACE;

COPPER HARBOR    N/A     26  21  81 NW3       29.73S
6HR MIN TEMP:  24; 6HR MAX TEMP:  28; 6HR PCP:  0.01;

IRONWOOD       MOCLDY    21  14  74 SW8       29.73F WCI  11
6HR MIN TEMP:  13; 6HR MAX TEMP:  23; 6HR PCP: TRACE;

$$

ABBREVIATIONS USED IN REMARKS
   TC - TEMPERATURE IN CELSIUS
  WCI - WIND CHILL INDEX
   HX - HEAT INDEX
  VSB - VISIBILITY




USA.gov is the U.S. government's official web portal to all federal, state and local government web resources and services.